Other Public Products
Issued by NWS Grand Forks, ND

Home | Current Version | Previous Version | Text Only | Print | Product List | Glossary On
Versions: 1 2 3 4 5 6 7 8 9 10 11 12 13 14 15 16 17 18 19 20 21 22 23 24 25 26 27 28 29 30 31 32 33 34 35 36 37 38 39 40 41 42 43 44 45 46 47 48 49 50
000
FPUS83 KFGF 052031
OPUFGF
PRAIRIE TO PINES WEATHER ROUNDUP
NATIONAL WEATHER SERVICE EASTERN NORTH DAKOTA/GRAND FORKS ND
200 PM CST THU MAR 05 2015

 **SATELLITE DATA USED TO AUGMENT SKY COVER AT AUTOMATED STATIONS**
 *****  WEATHER ACROSS EASTERN NORTH DAKOTA  *****

CITY           SKY/WX    TMP DP  RH WIND       PRES   REMARKS
GRAND FORKS    SUNNY     20   9  62 S21       30.20F WCI   4
GRAND FORKS AF SUNNY     25   6  44 S20G26    30.17F WCI  11
GRAND CITY NWS   N/A     21 N/A N/A S18         N/A  WCI   6
BUXTON           N/A     20  10  64 S15         N/A  WCI   7
DEVILS LAKE    SUNNY     21  10  63 S14       30.08F WCI   8
FARGO          SUNNY     21   4  47 S23       30.26F WCI   5
WAHPETON ARPT  CLEAR     18   5  57 S21       30.29F WCI   1
$$

 *****  WEATHER ACROSS CENTRAL AND WESTERN NORTH DAKOTA  *****

CITY           SKY/WX    TMP DP  RH WIND       PRES   REMARKS
JAMESTOWN      SUNNY     26  10  50 SW17G25   30.13F WCI  13
BISMARCK       SUNNY     36   6  28 SW16      30.07F
MINOT          SUNNY     23   9  55 SW14      30.03F WCI  11
MINOT AFB      SUNNY     23  12  62 W13       30.03F WCI  11
GARRISON         N/A     28  13  53 W10       30.05F WCI  19
WILLISTON      SUNNY     33  11  39 W8        30.05F
DICKINSON      SUNNY     40  10  29 NW15G28   30.00F
HETTINGER      SUNNY     43  10  26 NW20G30   30.03F
$$

 *****  OTHER OBSERVATIONS NORTHEAST NORTH DAKOTA  *****

CITY           SKY/WX    TMP DP  RH WIND       PRES   REMARKS
WALHALLA         N/A     21   9  58 SW12G18   30.10F WCI   9
LANGDON        NOT AVBL
CAVALIER       FAIR      23   7  50 S16G23    30.11F WCI  10
GRAFTON        NOT AVBL
CANDO          FAIR      25   9  50 S14       30.06F WCI  13
FORT TOTTEN      N/A     24   8  49 S8        29.95S WCI  15
ROLLA          FAIR      14   3  62 SW17      30.02F WCI  -3
RUGBY          FAIR      19  12  73 SW13      30.05F WCI   7
 ***** THE ABOVE OBSERVATIONS ARE NON NWS ARE NOT QUALITY
        CONTROLLED AND MAY MIS-REPORT RAIN FOR SNOW...
$$

 *****  OTHER OBSERVATIONS SOUTHEAST NORTH DAKOTA *****

CITY           SKY/WX    TMP DP  RH WIND       PRES   REMARKS
COOPERSTOWN    NOT AVBL
VALLEY CITY    FLURRIES  19  10  68 S23       30.16F WCI   2
OAKES            N/A     21   9  58 S21G29    30.20F WCI   6
GWINNER        CLEAR     23   9  54 S22       30.23F WCI   8
SHEYENNE NWR     N/A     22   3  44 S16       29.95  WCI   8
BUFFALO        NOT AVBL
WYNDMERE       NOT AVBL
 ***** THE ABOVE OBSERVATIONS ARE NON NWS ARE NOT QUALITY
       CONTROLLED AND MAY MIS-REPORT RAIN FOR SNOW...
$$

  *****  WEATHER ACROSS NORTHERN MINNESOTA  *****

CITY           SKY/WX    TMP DP  RH WIND       PRES   REMARKS
FLAG ISLAND    SUNNY      9  -2  61 S18       30.15F WCI -10
WARROAD        SUNNY     16   0  48 S10       30.17F WCI   3
ROSEAU         SUNNY     16   3  57 S16       30.16F WCI   0
HALLOCK        SUNNY     18   9  68 S23       30.16F WCI   0
THF RVR FALLS  SUNNY     16   7  67 S24       30.20F WCI  -3
HALSTAD          N/A     22   1  41 S24         N/A  WCI   5
FOSSTON        SUNNY     16   1  53 S21       30.22F WCI  -2
BAUDETTE       SUNNY     15  -3  44 SW14      30.18F WCI   0
WASKISH        SUNNY     18   0  45 SW14      30.21F WCI   4
CROOKSTON      SUNNY     21   9  58 S23       30.22F WCI   5
$$
  *****  WEATHER ACROSS CENTRAL AND WEST MINNESOTA  *****

CITY           SKY/WX    TMP DP  RH WIND       PRES   REMARKS
BEMIDJI        SUNNY     15  -4  42 SW13      30.22F WCI   2
PARK RAPIDS    SUNNY     12  -3  51 S14       30.27F WCI  -3
WADENA         SUNNY     10  -4  52 S13       30.29F WCI  -5
DETROIT LAKES  SUNNY     16   0  48 S15       30.26F WCI   1
MOORHEAD       SUNNY     18   3  53 S20G28    30.27F WCI   1
FERGUS FALLS   SUNNY     14   1  57 S17       30.34F WCI  -3
ELBOW LAKE     FAIR      13   3  64 S17       30.31F WCI  -4
MORRIS MN      SUNNY     16   3  57 S15       30.32F WCI   1
STAPLES        SUNNY      9  -6  52 S13       30.31F WCI  -7
WHEATON        SUNNY     16   3  57 S13G20    30.32F WCI   2
$$
  *****  WEATHER ELSEWHERE ACROSS MINNESOTA  *****

CITY           SKY/WX    TMP DP  RH WIND       PRES   REMARKS
DULUTH         SUNNY     11  -9  40 W15G23    30.29F WCI  -5
INTRNTL FALLS  SUNNY     13 -10  35 W17G25    30.22F WCI  -4
ELY            SUNNY     12 -11  34 SW12      30.23F WCI  -2
CLOQUET        SUNNY     12 -13  31 W12G18    30.30F WCI  -2
BRAINERD       SUNNY     10  -5  50 SW10      30.34F WCI  -4
HIBBING        SUNNY     13  -9  37 SW9       30.27F WCI   1
ALEXANDRIA     SUNNY     11  -1  58 S12       30.33F WCI  -3
SAINT CLOUD    SUNNY     11  -1  58 S8        30.40F WCI  -1
MINNEAPOLIS    FAIR      12  -4  48 SW8       30.45F WCI   0
$$

  *****  WEATHER ACROSS SOUTH DAKOTA  *****

CITY           SKY/WX    TMP DP  RH WIND       PRES   REMARKS
SIOUX FALLS    SUNNY     23   5  46 SW10G21   30.34F WCI  12
BROOKINGS      NOT AVBL
WATERTOWN      SUNNY     17   6  62 S14       30.26F WCI   3
HURON          SUNNY     28   9  44 S17G24    30.26F WCI  16
SISSETON         N/A     19   7  59 S14       30.28  WCI   6
ABERDEEN       SUNNY     20   9  62 S15       30.25F WCI   6
MITCHELL       SUNNY     30   7  37 SW15      30.29F WCI  19
PIERRE         MOSUNNY   27  12  53 S13       30.18F WCI  16
MOBRIDGE       SUNNY     34   6  31 S15       30.09F WCI  24
RAPID CITY     CLOUDY    42  14  32 CALM      30.09F
$$

  *****  SOME WEATHER IN NEARBY STATES *****

CITY           SKY/WX    TMP DP  RH WIND       PRES   REMARKS
GLASGOW MT     SUNNY     45  12  26 VRB7      30.05F
GREAT FALLS MT MOSUNNY   51   8  17 W22G32    30.09F
CHEYENNE WY    PTSUNNY   38  14  37 W17       30.17F
SCOTTSBLUFF NE PTSUNNY   46  14  27 NW15      30.20F
OMAHA NE       SUNNY     25   2  37 S10       30.47F WCI  15
DES MOINES IA  SUNNY     18  -3  39 VRB5      30.51F WCI  11
DAVENPORT IA   SUNNY     10  -2  58 W12       30.54F WCI  -5
CHICAGO IL     SUNNY     15  -3  44 W12       30.47S WCI   2
EAU CLAIRE WI  SUNNY      7  -8  50 W9        30.45F WCI  -7
LA CROSSE WI   SUNNY     14  -3  47 NW8       30.49F WCI   3
$$

  *****  SOME NATIONAL WEATHER *****

CITY           SKY/WX    TMP DP  RH WIND       PRES   REMARKS
LA GUARDIA NY  LGT SNOW  25  18  74 NW10      30.18R VSB 3/4 WCI  15
RALEIGH NC     LGT RAIN  37  34  87 E15G23    30.05R FOG
ATLANTA GA     CLOUDY    43  39  86 NW22G35   30.09R
NEW ORLEANS LA CLOUDY    40  32  73 N25G35    30.27R
OKLAHOMA CITY  SUNNY     39  13  34 W7        30.52F
ALBUQUERQUE NM SUNNY     43  14  31 E5        30.37F
SALT LAKE CITY MOSUNNY   44  21  40 S7        30.43F
LOS ANGELES CA MOSUNNY   71  25  17 W10       30.25F
BOISE ID       SUNNY     50  16  25 CALM      30.39F
SEATTLE WA     PTSUNNY   52  33  48 W5        30.38F
$$

*** WEATHER ACROSS MANITOBA...SASKATCHEWAN AND ONTARIO ***
                ***ONTARIO***

CITY           SKY/WX    TMP DP  RH WIND       PRES   REMARKS
GERALDTON      SUNNY      7 -11  43 SW20      30.13F WCI -13
THUNDER BAY    SUNNY     14 -11  31 SW14      30.26F WCI  -1
SIOUX LOOKOUT  MOSUNNY    9  -9  43 SW10G17   30.12F WCI  -6
TORONTO        PTSUNNY   14  -4  44 N10       30.32S WCI   1
BIG TROUT LK   SUNNY      7  -9  47 W12G20    29.92F WCI  -9
PICKLE LAKE    MOSUNNY   10 -11  37 W13G25    30.00F WCI  -5
DRYDEN         SUNNY      9  -9  43 SW17G26   30.12F WCI -10
KENORA         MOSUNNY    5  -9  51 S16       30.13F WCI -14
$$
                *** MANITOBA***

CITY           SKY/WX    TMP DP  RH WIND       PRES   REMARKS
BRANDON        MOSUNNY   12   1  62 SW9       30.00F WCI   0
DAUPHIN        MOSUNNY   23   7  50 W13       29.89F WCI  11
ISLAND LAKE    CLOUDY     9  -9  43 SW15G22   29.86  WCI  -8
PILOT MOUND      N/A     12   5  73 S17         N/A  WCI  -5
THE PAS        CLOUDY    14   0  52 W13       29.75F WCI   0
THOMPSON       PTSUNNY   10  -8  44 SW13      29.68F WCI  -5
WINNIPEG       MOSUNNY    9   0  66 S23       30.11F WCI -12
LYNN LAKE      PTSUNNY   12   1  62 W13G21    29.61S WCI  -3
CHURCHILL      CRYSTALS  -4 -13  65 S10       29.66F WCI -21
GILLAM         PTSUNNY    9  -9  43 SW16      29.72F WCI  -9
$$
                ***SASKATCHEWAN***

CITY           SKY/WX    TMP DP  RH WIND       PRES   REMARKS
ESTEVAN        MOSUNNY   23  10  58 SW13      29.99F WCI  11
KINDERSLEY     MOSUNNY   34  23  64 W14       29.97S WCI  24
LLOYDMINSTER   PTSUNNY   30  18  59 W14       29.93S WCI  20
PRINCE ALBERT  MOSUNNY   25   9  50 W21       29.85S WCI  10
REGINA         MOSUNNY   18  12  79 S5        29.95F WCI  11


USA.gov is the U.S. government's official web portal to all federal, state and local government web resources and services.